Flag for Norway Weather past 2 weeks in Gjøvik, Norway

Now
46 °F

Cool.


Feels Like: 43 °F
Forecast: 35 / 53 °F
Wind: 5 mph from North

Location: Lillehammer-Saetherengen

Current Time: Sep 21, 2014 at 11:12:25 PM

Latest Report: Sep 21, 2014 at 10:00 PM


Visibility: N/A

Pressure: 29.90 "Hg

Humidity: 62%

Dew point: 33 °F

Location of GjøvikLocation

Historic Weather in Gjøvik — Graph

°F

Gjøvik temperature yesterday

Maximum temperature yesterday: 51 °F (at 3:00 PM)
Minimum temperature yesterday: 39 °F (at 5:00 AM)
Average temperature yesterday: 46 °F

Past Weeks' High & Low Weather Summary

 TemperatureHumidityPressure
High67 °F (Sep 10, 4:00 PM)96% (Sep 8, 2:00 PM)30.50 "Hg (Sep 8, 2:00 PM)
Low39 °F (Sep 20, 5:00 AM)46% (Sep 10, 4:00 PM)29.76 "Hg (Sep 9, 6:00 AM)
Average53 °F84%30.16 "Hg
* Reported Sep 6 9:00 PM — Sep 21 9:00 PM, Gjøvik, Weather by CustomWeather, © 2014

Note: Actual official high and low records may vary slightly from our data, if they occured in-between our weather recording intervals... More about our weather records

Advertising

Gjøvik weather history for previous 24 hours

 ConditionsComfort  
Time TempWeatherWind HumidityBarometerVisibility
9:00 PM
Sep 21
47 °FCool.6 mph57%29.89 "HgN/A
8:00 PM48 °FCool.5 mph54%29.88 "HgN/A
7:00 PM50 °FCool.6 mph52%29.85 "HgN/A
6:00 PM54 °FCool.7 mph50%29.82 "HgN/A
5:00 PM54 °FCool.7 mph57%29.81 "HgN/A
4:00 PM55 °FCool.5 mph65%29.80 "HgN/A
3:00 PM52 °FCool.5 mph78%29.82 "HgN/A
2:00 PM51 °FCool.3 mph78%29.82 "HgN/A
1:00 PM55 °FCool.2 mph72%29.80 "HgN/A
12:00 PM54 °FCool.1 mph78%29.80 "HgN/A
11:00 AM53 °FCool.2 mph85%29.82 "HgN/A
10:00 AM50 °FCool.1 mph95%29.82 "HgN/A
9:00 AM49 °FCool.1 mph96%29.83 "HgN/A
8:00 AM48 °FCool.1 mph95%29.82 "HgN/A
7:00 AM49 °FCool.1 mph96%29.81 "HgN/A
6:00 AM49 °FCool.1 mph96%29.81 "HgN/A
5:00 AM49 °FCool.2 mph96%29.81 "HgN/A
4:00 AM49 °FCool.2 mph95%29.81 "HgN/A
3:00 AM49 °FCool.2 mph95%29.81 "HgN/A
2:00 AM49 °FCool.1 mph95%29.82 "HgN/A
1:00 AM48 °FCool.2 mph95%29.82 "HgN/A
12:00 AM49 °FCool.1 mph95%29.83 "HgN/A
11:00 PM
Sep 20
49 °FCool.1 mph94%29.83 "HgN/A
Weather by CustomWeather, © 2014

See weather overviewHow to use our weather pages